When you browse on this site, cookies collect data to enhance your experience and personalize the content and advertising you see.
Visit our Privacy Policy to learn more. By continuing to use the site, you agree to this use of cookies and data.
  • In Norway
  • List of Countries
  • For 7 days
  • Water Temperature
  • Satellite Maps
  • Weather Map
  • Weather Widgets
  • user-avatar
    Login

    Hourly Weather Brisbane

    Today, 25 June, Tuesday

    Time Temperature Precipitation Wind Pressure Humidity
    00:00 +12°C° 0.1 mm 3 mps 766 mmHg 85%
    01:00 +12°C° 0.1 mm 3 mps 766 mmHg 86%
    02:00 +12°C° 0.2 mm 3 mps 766 mmHg 86%
    03:00 +12°C° 0.2 mm 3 mps 766 mmHg 86%
    04:00 +13°C° 0.2 mm 3 mps 766 mmHg 86%
    05:00 +13°C° 0.2 mm 3 mps 766 mmHg 87%
    06:00 +13°C° 0.2 mm 3 mps 767 mmHg 88%
    07:00 +13°C° 0.2 mm 3 mps 767 mmHg 89%
    08:00 +14°C° 0.1 mm 4 mps 767 mmHg 82%
    09:00 +17°C° 0.1 mm 4 mps 767 mmHg 76%
    10:00 +19°C° 0.1 mm 5 mps 767 mmHg 69%
    11:00 +19°C° 0.2 mm 5 mps 767 mmHg 66%
    12:00 +20°C° 0.2 mm 6 mps 766 mmHg 63%
    13:00 +21°C° 0.2 mm 6 mps 766 mmHg 60%
    14:00 +20°C° 0.2 mm 6 mps 766 mmHg 61%
    15:00 +20°C° 0.2 mm 6 mps 766 mmHg 63%
    16:00 +20°C° 0.2 mm 6 mps 766 mmHg 65%
    17:00 +19°C° 0.3 mm 5 mps 767 mmHg 70%
    18:00 +17°C° 0.3 mm 5 mps 767 mmHg 75%
    19:00 +17°C° 0.3 mm 4 mps 768 mmHg 80%
    20:00 +15°C° 0.3 mm 4 mps 768 mmHg 82%
    21:00 +15°C° 0.3 mm 4 mps 768 mmHg 83%
    22:00 +15°C° 0.3 mm 4 mps 768 mmHg 85%
    23:00 +14°C° 0.3 mm 4 mps 768 mmHg 85%

    Tomorrow, 26 June, Wednesday

    Time Temperature Precipitation Wind Pressure Humidity
    00:00 +14°C° 0.3 mm 3 mps 768 mmHg 86%
    01:00 +14°C° 0.3 mm 3 mps 768 mmHg 87%
    02:00 +14°C° 0.1 mm 3 mps 768 mmHg 87%
    03:00 +14°C° 0.1 mm 3 mps 768 mmHg 88%
    04:00 +13°C° 0.1 mm 3 mps 768 mmHg 88%
    05:00 +13°C° 0 mm 3 mps 768 mmHg 88%
    06:00 +13°C° 0 mm 3 mps 769 mmHg 89%
    07:00 +13°C° 0 mm 3 mps 769 mmHg 89%
    08:00 +14°C° 0 mm 3 mps 769 mmHg 83%
    09:00 +17°C° 0 mm 4 mps 769 mmHg 77%
    10:00 +19°C° 0 mm 4 mps 770 mmHg 70%
    11:00 +20°C° 0.1 mm 5 mps 769 mmHg 66%
    12:00 +21°C° 0.1 mm 5 mps 769 mmHg 61%
    13:00 +21°C° 0.1 mm 6 mps 768 mmHg 56%
    14:00 +21°C° 0.1 mm 6 mps 768 mmHg 59%
    15:00 +20°C° 0.1 mm 5 mps 768 mmHg 62%
    16:00 +20°C° 0.1 mm 5 mps 768 mmHg 64%
    17:00 +19°C° 0.1 mm 5 mps 768 mmHg 68%
    18:00 +17°C° 0.1 mm 5 mps 769 mmHg 72%
    19:00 +17°C° 0.1 mm 4 mps 769 mmHg 76%
    20:00 +15°C° 0.1 mm 4 mps 769 mmHg 78%
    21:00 +15°C° 0.1 mm 4 mps 770 mmHg 80%
    22:00 +14°C° 0.1 mm 4 mps 770 mmHg 81%
    23:00 +14°C° 0.1 mm 4 mps 770 mmHg 82%

    Day after tomorrow, 27 June, Thursday

    Time Temperature Precipitation Wind Pressure Humidity
    00:00 +14°C° 0.1 mm 4 mps 770 mmHg 83%
    01:00 +14°C° 0.1 mm 4 mps 769 mmHg 84%
    02:00 +14°C° 0 mm 4 mps 769 mmHg 85%
    03:00 +13°C° 0 mm 4 mps 769 mmHg 86%
    04:00 +13°C° 0 mm 4 mps 769 mmHg 87%
    05:00 +13°C° 0 mm 4 mps 770 mmHg 86%
    06:00 +13°C° 0 mm 4 mps 770 mmHg 86%
    07:00 +13°C° 0 mm 4 mps 770 mmHg 85%
    08:00 +15°C° 0 mm 4 mps 770 mmHg 80%
    09:00 +17°C° 0 mm 4 mps 770 mmHg 74%
    10:00 +19°C° 0 mm 4 mps 770 mmHg 69%
    11:00 +20°C° 0.2 mm 4 mps 770 mmHg 68%
    12:00 +20°C° 0.2 mm 5 mps 769 mmHg 68%
    13:00 +21°C° 0.2 mm 5 mps 769 mmHg 67%
    14:00 +20°C° 0.2 mm 4 mps 769 mmHg 69%
    15:00 +20°C° 0.2 mm 4 mps 769 mmHg 70%
    16:00 +19°C° 0.2 mm 4 mps 769 mmHg 72%
    17:00 +18°C° 0.1 mm 4 mps 769 mmHg 76%
    18:00 +17°C° 0.1 mm 3 mps 770 mmHg 80%
    19:00 +16°C° 0.1 mm 3 mps 770 mmHg 84%
    20:00 +16°C° 0.3 mm 3 mps 770 mmHg 85%
    21:00 +16°C° 0.3 mm 3 mps 770 mmHg 86%
    22:00 +16°C° 0.3 mm 3 mps 771 mmHg 88%
    23:00 +14°C° 0.2 mm 3 mps 771 mmHg 88%

    28 June, Friday

    Time Temperature Precipitation Wind Pressure Humidity
    00:00 +14°C° 0.2 mm 3 mps 770 mmHg 89%
    01:00 +14°C° 0.2 mm 3 mps 770 mmHg 89%
    02:00 +14°C° 0 mm 3 mps 770 mmHg 89%
    03:00 +14°C° 0 mm 3 mps 770 mmHg 89%
    04:00 +13°C° 0 mm 3 mps 769 mmHg 89%
    05:00 +13°C° 0.1 mm 3 mps 770 mmHg 89%
    06:00 +13°C° 0.1 mm 3 mps 770 mmHg 89%
    07:00 +13°C° 0.1 mm 3 mps 770 mmHg 88%
    08:00 +16°C° 0.2 mm 3 mps 770 mmHg 82%
    09:00 +18°C° 0.2 mm 4 mps 770 mmHg 76%
    10:00 +19°C° 0.2 mm 5 mps 770 mmHg 70%
    11:00 +20°C° 0.1 mm 5 mps 770 mmHg 64%
    12:00 +21°C° 0.1 mm 5 mps 769 mmHg 59%
    13:00 +22°C° 0.1 mm 5 mps 769 mmHg 53%
    14:00 +22°C° 0.1 mm 5 mps 768 mmHg 57%
    15:00 +21°C° 0.1 mm 5 mps 768 mmHg 61%
    16:00 +20°C° 0.1 mm 5 mps 768 mmHg 65%
    17:00 +19°C° 0.1 mm 5 mps 768 mmHg 70%
    18:00 +18°C° 0.1 mm 4 mps 768 mmHg 75%
    19:00 +18°C° 0.1 mm 4 mps 769 mmHg 80%
    20:00 +17°C° 0.1 mm 4 mps 769 mmHg 81%
    21:00 +17°C° 0.1 mm 3 mps 769 mmHg 83%
    22:00 +16°C° 0.1 mm 3 mps 769 mmHg 84%
    23:00 +16°C° 0.1 mm 3 mps 769 mmHg 84%

    29 June, Saturday

    Time Temperature Precipitation Wind Pressure Humidity
    00:00 +16°C° 0.1 mm 3 mps 769 mmHg 85%
    01:00 +16°C° 0.1 mm 3 mps 768 mmHg 85%
    02:00 +16°C° 0 mm 3 mps 768 mmHg 85%
    03:00 +16°C° 0 mm 3 mps 768 mmHg 85%
    04:00 +14°C° 0 mm 3 mps 767 mmHg 85%
    05:00 +14°C° 0 mm 3 mps 768 mmHg 85%
    06:00 +14°C° 0 mm 3 mps 768 mmHg 86%
    07:00 +14°C° 0 mm 3 mps 768 mmHg 86%
    08:00 +17°C° 0.2 mm 3 mps 768 mmHg 81%
    09:00 +18°C° 0.2 mm 4 mps 768 mmHg 76%
    10:00 +20°C° 0.2 mm 4 mps 768 mmHg 71%
    11:00 +21°C° 0.3 mm 4 mps 767 mmHg 68%
    12:00 +21°C° 0.3 mm 4 mps 766 mmHg 65%
    13:00 +22°C° 0.3 mm 4 mps 766 mmHg 62%
    14:00 +21°C° 0.1 mm 4 mps 765 mmHg 64%
    15:00 +21°C° 0.1 mm 4 mps 765 mmHg 66%
    16:00 +21°C° 0.1 mm 3 mps 765 mmHg 68%
    17:00 +20°C° 0.2 mm 3 mps 765 mmHg 72%
    18:00 +19°C° 0.2 mm 2 mps 766 mmHg 76%
    19:00 +18°C° 0.2 mm 2 mps 766 mmHg 80%
    20:00 +17°C° 0.3 mm 2 mps 766 mmHg 82%
    21:00 +17°C° 0.3 mm 2 mps 766 mmHg 84%
    22:00 +16°C° 0.3 mm 2 mps 766 mmHg 86%
    23:00 +16°C° 0.1 mm 2 mps 765 mmHg 86%

    30 June, Sunday

    Time Temperature Precipitation Wind Pressure Humidity
    00:00 +16°C° 0.1 mm 1 mps 765 mmHg 87%
    01:00 +15°C° 0.1 mm 1 mps 765 mmHg 87%
    02:00 +15°C° 0 mm 1 mps 765 mmHg 88%
    03:00 +15°C° 0 mm 2 mps 764 mmHg 88%
    04:00 +14°C° 0 mm 2 mps 764 mmHg 89%
    05:00 +14°C° 0 mm 2 mps 764 mmHg 89%
    06:00 +14°C° 0 mm 2 mps 765 mmHg 89%
    07:00 +14°C° 0 mm 2 mps 765 mmHg 89%
    08:00 +16°C° 0 mm 2 mps 765 mmHg 81%
    09:00 +18°C° 0 mm 2 mps 765 mmHg 73%
    10:00 +20°C° 0 mm 2 mps 765 mmHg 64%
    11:00 +21°C° 0 mm 2 mps 764 mmHg 58%
    12:00 +24°C° 0 mm 1 mps 764 mmHg 52%
    13:00 +25°C° 0 mm 1 mps 763 mmHg 45%
    14:00 +24°C° 0 mm 1 mps 763 mmHg 48%
    15:00 +24°C° 0 mm 2 mps 763 mmHg 51%
    16:00 +23°C° 0 mm 2 mps 762 mmHg 54%
    17:00 +21°C° 0 mm 2 mps 763 mmHg 63%
    18:00 +19°C° 0 mm 2 mps 763 mmHg 71%
    19:00 +19°C° 0 mm 1 mps 763 mmHg 80%
    20:00 +18°C° 0 mm 1 mps 764 mmHg 82%
    21:00 +18°C° 0 mm 1 mps 764 mmHg 83%
    22:00 +16°C° 0 mm 1 mps 764 mmHg 85%
    23:00 +16°C° 0 mm 1 mps 764 mmHg 86%
    Show more